Temperature
23 22 21 21 20 20 19 19 19 19 18 18 18 18 18 18 18 18 18 17 17 17 17 17 17 17 17 17 17 17 17 17 17 17 17 17 17 17 17 17 17 16 16
24 22 22 21 21 20 20 19 19 19 19 19 18 18 18 18 18 18 17 17 17 17 17 17 17 17 17 17 17 17 17 17 17 17 17 18 18 17 17 16 16 16 16
24 23 22 21 21 21 20 20 20 19 19 19 18 18 18 18 18 18 17 17 17 17 17 17 17 17 17 17 17 17 17 17 17 17 17 17 18 17 17 16 16 16 16
25 24 23 22 21 21 21 20 20 20 20 19 19 18 18 18 18 18 18 17 17 17 17 17 17 17 17 17 17 17 17 17 17 17 17 17 17 17 17 16 16 16 15
26 25 24 23 22 22 21 21 20 20 20 19 19 19 19 18 18 18 18 17 17 17 17 17 17 17 17 17 17 17 17 17 17 17 17 17 16 16 16 16 16 16 15
26 25 24 23 22 22 21 21 21 20 20 20 19 19 19 18 18 18 18 18 18 17 17 17 17 17 17 17 17 17 17 17 17 16 16 16 16 17 16 16 16 15 15
27 26 24 23 23 22 22 21 21 21 20 20 19 19 19 18 18 18 18 18 18 18 17 17 17 17 17 17 17 17 17 16 16 16 16 16 16 16 16 16 16 15 15
27 26 25 24 23 22 22 21 21 21 21 20 20 20 19 19 18 18 18 18 18 18 18 17 17 17 17 17 17 16 16 16 16 16 16 16 16 16 16 16 16 15 15
27 26 25 24 24 23 22 22 22 22 21 21 20 20 20 19 19 18 18 18 18 17 17 17 17 17 17 17 17 16 16 16 16 16 16 16 16 15 15 15 15 15 15
27 26 25 25 24 23 23 22 22 22 21 21 21 20 20 20 19 19 18 18 18 18 18 17 17 17 17 17 17 16 16 16 16 16 16 16 15 15 15 15 15 15 15
27 26 25 24 24 23 23 22 22 22 22 21 21 20 20 20 19 19 19 18 18 18 18 18 17 17 17 17 17 16 16 16 16 16 16 16 15 15 15 15 15 15 15
27 26 25 24 23 23 23 23 22 22 22 21 21 21 20 20 19 19 19 19 18 18 18 18 17 17 17 17 16 16 16 16 16 16 15 15 15 15 15 15 15 14 14
26 26 25 24 23 23 23 23 22 22 21 21 21 21 20 20 19 19 19 19 18 18 18 18 17 17 17 17 16 16 16 16 15 15 15 15 15 15 15 15 15 14 14
25 25 24 23 23 23 23 22 22 22 21 21 21 20 20 20 20 19 19 19 18 18 18 18 17 17 17 16 16 16 16 16 15 15 15 15 15 15 15 15 14 14 14
25 24 24 23 23 23 23 22 22 22 21 21 21 20 20 20 20 19 19 19 18 18 18 17 17 17 17 16 16 16 16 15 15 15 15 15 15 15 15 15 14 14 14
25 24 24 23 23 23 23 23 22 22 22 21 21 21 20 20 20 19 19 19 18 18 18 17 17 17 17 17 17 16 16 15 15 15 15 15 15 15 15 15 14 14 14
25 24 23 23 23 23 23 23 23 22 22 21 21 20 20 20 20 19 19 18 18 18 17 17 17 17 17 17 17 17 16 15 15 15 15 15 15 15 14 14 14 14 14
24 24 23 23 23 23 23 23 22 22 22 21 21 20 20 20 20 19 19 18 18 18 17 17 17 17 17 17 17 16 16 15 15 15 14 14 14 14 14 14 14 14 14
24 23 23 23 23 23 22 22 22 22 21 21 21 21 20 20 20 19 19 18 18 18 17 17 17 17 17 17 16 16 16 15 15 15 14 14 14 14 14 14 14 14 13
23 23 23 22 22 23 22 22 22 21 21 21 20 20 20 20 19 19 19 18 18 17 17 17 17 17 17 16 16 16 15 15 15 14 14 14 14 14 14 14 13 13 13
22 22 22 22 22 22 22 22 21 21 21 20 20 20 20 19 19 19 18 18 18 17 17 17 16 16 16 16 16 16 15 15 15 14 14 14 14 14 14 14 13 13 13
22 22 21 21 21 21 21 21 21 21 20 20 20 19 19 19 19 18 18 18 17 17 16 16 16 16 16 16 16 16 16 15 14 14 14 14 14 14 14 13 13 13 13
21 21 21 21 21 21 21 21 21 20 20 20 20 19 19 19 18 18 18 17 17 17 16 16 16 16 16 16 16 16 16 15 15 14 14 14 14 13 13 13 13 13 12
21 21 21 21 21 20 20 20 20 20 20 20 19 19 19 18 18 18 17 17 17 17 17 16 16 16 16 16 16 16 15 15 14 14 14 14 13 13 13 13 13 12 12
20 20 20 20 20 20 20 20 20 20 19 19 19 18 18 18 17 17 17 17 17 17 17 16 16 16 16 16 16 15 15 14 14 14 13 13 13 12 12 12 12 12 12
20 19 19 19 19 19 19 19 19 19 19 18 18 18 18 17 17 17 17 17 17 17 16 16 16 15 15 15 15 15 15 14 14 13 13 13 13 12 12 12 12 12 12
Wind_Speed
10 10 10 9 8 8 7 7 6 5 4 3 3 2 2 1 1 1 1 0 1 1 1 1 0 1 0 1 1 1 1 1 1 1 1 1 1 1 0 0 1 1 1
11 11 11 10 10 9 8 8 7 6 6 4 3 2 1 1 1 1 1 1 0 1 0 1 1 0 0 1 1 2 2 2 1 2 2 1 2 2 1 1 0 1 1
13 13 12 11 11 10 10 8 7 7 6 5 4 4 3 2 2 1 1 0 0 0 1 1 2 1 2 1 1 2 3 2 2 2 2 2 1 0 1 1 1 1 1
13 13 13 13 12 11 10 9 8 7 7 6 5 5 3 2 1 1 1 1 0 1 1 1 1 2 2 1 2 1 2 3 2 1 2 2 2 2 1 1 1 1 1
14 14 14 13 12 11 10 10 9 8 8 7 6 6 4 3 2 2 1 1 1 1 1 1 1 2 2 1 2 1 2 2 3 2 2 2 2 3 3 2 1 1 1
14 14 13 12 12 11 10 10 10 9 9 8 7 6 5 4 3 3 2 2 1 1 1 1 1 2 1 1 2 2 2 2 2 3 2 2 2 2 3 3 2 1 1
14 14 14 14 13 12 12 11 11 10 9 9 8 7 7 6 5 4 3 3 2 1 1 1 1 1 1 1 1 1 2 2 2 3 2 2 3 3 2 3 2 1 1
13 14 15 14 14 13 13 12 11 11 10 10 9 8 7 6 5 5 3 3 2 1 1 1 1 1 1 1 1 2 2 1 2 2 2 3 2 2 2 2 2 2 1
13 14 14 14 14 13 13 13 12 11 11 11 10 8 7 6 5 4 5 3 3 2 2 2 1 1 1 1 2 1 2 2 2 2 2 2 2 2 2 2 2 2 2
12 13 13 13 13 12 12 12 12 11 11 11 9 8 8 7 6 5 4 4 3 2 2 2 2 2 2 2 2 2 1 2 2 2 2 2 2 1 1 2 2 3 3
11 12 12 12 12 12 12 11 11 11 10 10 9 8 8 8 7 6 6 5 4 4 3 3 3 2 2 2 2 2 2 2 2 2 2 2 2 2 1 1 1 1 1
9 10 11 12 12 12 11 11 11 11 10 10 9 9 8 8 7 7 6 6 5 4 4 4 4 3 2 2 2 3 2 2 2 2 2 2 1 1 2 1 1 1 1
8 9 10 11 11 12 11 11 11 10 10 10 9 9 8 8 7 7 6 6 5 4 4 4 4 3 3 3 3 3 2 2 2 2 2 2 2 2 1 2 1 1 2
7 8 9 9 10 10 11 10 10 10 10 10 9 9 9 8 8 7 6 6 5 5 5 5 4 4 4 4 3 3 3 2 2 2 2 2 2 2 2 2 2 2 2
8 8 8 9 10 10 10 10 10 10 10 10 9 9 9 8 7 7 7 6 6 6 5 5 5 5 5 4 4 4 4 3 3 2 2 2 0 1 2 2 1 2 3
7 8 8 8 9 10 10 10 10 10 10 10 9 9 9 8 8 8 7 7 7 6 6 6 5 5 4 2 2 4 4 4 4 3 3 2 3 3 3 1 1 2 3
7 8 8 8 9 9 10 10 10 10 10 10 9 9 9 9 8 8 8 7 7 7 7 7 6 6 4 4 4 5 5 5 5 4 4 4 2 3 3 3 4 3 2
6 7 7 8 8 9 9 9 10 10 10 10 9 9 9 9 8 8 8 7 7 6 7 7 7 6 5 6 7 7 7 6 5 5 5 4 3 3 3 4 4 3 3
5 6 7 7 7 8 9 9 9 10 10 10 10 10 9 9 8 8 8 7 7 7 7 7 7 7 6 7 8 8 6 5 5 5 5 5 5 3 4 5 4 4 3
3 4 5 6 6 7 8 9 9 9 10 9 9 9 9 9 9 8 7 7 7 7 7 6 7 7 7 7 8 9 6 6 5 5 5 5 5 5 6 6 5 5 4
2 4 5 5 5 6 8 8 8 8 8 8 8 8 8 9 8 7 7 7 7 6 6 7 7 7 8 8 9 9 7 6 6 5 5 4 8 8 7 7 6 4 4
3 4 5 5 5 6 7 7 7 7 7 7 7 8 8 7 7 7 7 7 7 7 7 7 7 7 7 8 9 11 10 7 6 6 5 3 9 9 8 6 4 5 6
2 3 4 4 4 5 6 7 6 6 6 7 7 7 7 7 7 7 7 7 7 7 7 7 7 7 6 7 10 11 11 9 7 5 2 2 7 7 6 7 7 7 6
2 3 4 4 4 4 5 5 5 5 6 7 7 7 7 7 7 6 7 7 7 7 7 7 7 7 6 6 6 7 8 9 8 6 4 6 7 7 5 6 7 7 6
2 3 4 4 4 4 4 4 5 5 6 6 6 6 6 6 6 6 6 7 6 6 6 7 7 6 7 5 4 5 6 6 6 5 5 6 6 6 6 6 6 7 7
2 3 4 4 4 4 4 4 5 6 6 6 6 5 5 5 6 6 5 4 5 3 5 5 6 5 3 3 5 6 5 5 5 6 6 7 7 7 7 7 7 7 6
Wind_Direction
187 186 189 190 188 190 192 196 200 191 198 200 207 196 190 184 161 135 83 31 350 15 320 336 55 301 353 325 292 265 209 240 257 247 226 180 172 130 119 345 345 35 18
187 188 190 191 192 192 195 195 197 194 199 192 200 200 200 195 152 119 80 37 46 329 252 316 286 314 299 267 272 254 269 265 259 284 280 245 184 155 119 112 41 353 350
191 189 192 194 195 195 196 196 195 194 197 194 191 183 183 204 180 171 162 198 294 304 324 316 320 320 299 297 269 259 263 271 261 269 276 289 304 342 142 121 83 20 358
195 192 191 193 196 195 192 192 190 190 190 193 199 199 204 200 184 201 155 165 244 287 298 303 310 312 311 306 277 275 265 270 280 267 266 283 302 266 248 186 127 78 10
196 194 194 190 193 192 189 187 186 188 189 192 194 203 210 204 193 187 175 237 196 257 287 283 291 292 301 325 315 300 283 278 286 289 282 268 248 249 262 269 276 355 17
195 194 192 187 190 189 187 185 183 188 189 192 197 204 210 214 213 216 219 219 206 212 238 243 260 271 296 297 293 287 277 301 302 297 290 282 277 269 264 273 266 294 360
190 189 188 187 188 189 187 186 184 189 190 192 198 202 207 210 213 224 213 237 233 215 207 260 258 275 282 281 289 275 301 296 290 287 292 288 286 290 275 266 271 281 293
187 187 186 186 187 187 186 186 186 189 187 190 196 203 206 213 210 213 233 224 242 241 220 240 244 249 254 260 253 261 263 271 275 284 286 282 286 285 267 261 260 266 276
183 185 186 185 186 186 186 187 186 188 188 191 192 197 202 210 210 205 218 223 220 221 203 216 229 238 242 259 257 263 269 273 273 273 256 265 276 269 270 252 245 262 271
181 182 184 185 184 184 184 187 188 189 190 192 196 195 200 202 207 212 212 220 217 221 212 212 222 238 247 252 258 265 277 275 277 284 293 283 281 289 264 256 254 257 258
179 180 182 182 182 182 181 183 186 187 189 193 195 200 201 203 205 208 212 212 213 209 212 212 217 227 237 244 252 280 286 286 292 277 264 268 285 282 270 253 244 240 229
177 177 177 177 181 183 184 183 186 188 189 190 192 197 201 203 205 206 209 209 208 208 207 210 214 222 225 230 242 260 273 284 293 291 287 284 273 257 266 266 248 211 199
174 174 176 179 183 185 186 187 188 188 188 187 190 192 195 197 201 204 202 205 204 205 206 209 217 225 228 227 239 253 260 274 290 297 293 290 286 273 271 257 237 212 198
173 176 178 181 182 184 185 187 188 186 184 185 187 189 192 193 195 197 199 203 206 208 209 212 219 225 229 228 230 234 240 249 263 276 278 279 274 270 256 236 226 219 206
177 180 180 179 181 183 185 187 185 182 181 181 185 189 190 189 191 193 199 204 208 211 210 214 219 225 228 229 228 230 233 233 239 246 259 265 264 339 283 274 236 222 220
189 188 186 184 185 185 186 185 183 180 180 183 187 187 187 188 191 195 198 201 206 211 212 216 221 228 234 151 209 250 243 238 237 237 240 231 196 175 191 216 269 269 238
200 193 191 193 192 189 186 184 180 178 181 186 188 188 189 191 194 198 199 204 207 209 212 217 221 223 216 184 201 231 245 243 242 240 237 245 206 186 205 182 194 213 250
211 201 197 196 194 187 183 182 178 180 184 188 190 190 192 195 196 199 203 208 209 211 215 217 221 224 215 195 207 217 228 242 243 244 240 236 230 222 207 213 210 213 211
217 202 197 192 186 183 178 178 181 183 188 192 194 194 194 196 197 201 204 206 208 214 218 218 219 222 219 200 207 216 223 227 233 236 236 235 230 185 206 219 222 223 217
212 197 189 180 176 176 174 181 185 189 196 198 199 197 196 199 202 204 206 206 208 216 221 222 222 224 227 203 202 216 225 228 229 222 217 217 226 193 204 219 226 227 225
181 176 173 173 173 172 173 184 187 194 197 196 197 198 199 202 204 204 206 208 210 214 222 227 226 225 226 205 197 210 225 232 234 232 226 210 176 190 213 232 231 232 236
152 162 164 163 165 171 177 186 193 195 192 190 193 196 200 206 202 202 207 210 212 214 219 225 233 229 222 217 203 204 221 249 239 244 241 204 166 187 208 222 224 229 240
148 161 158 156 163 177 185 194 195 192 190 189 194 198 200 204 204 203 206 212 216 223 226 228 232 235 226 209 196 200 211 229 236 244 251 180 176 194 209 219 224 225 231
164 168 166 167 174 185 195 199 192 191 193 194 195 196 199 206 209 213 215 220 223 227 230 236 238 237 230 227 211 208 209 210 221 233 210 190 199 219 232 217 219 228 235
196 191 193 193 193 189 192 199 192 190 198 203 202 207 212 213 214 222 231 232 234 238 239 241 242 243 241 235 220 221 220 218 211 215 222 223 217 217 222 225 222 224 226
222 211 211 210 208 201 201 202 200 199 203 207 211 216 222 220 227 227 234 248 246 238 240 259 263 254 250 203 197 207 213 208 192 212 226 227 227 227 230 230 225 222 223
Height
1543 1545 1547 1549 1550 1551 1552 1553 1554 1554 1555 1557 1557 1558 1558 1559 1559 1559 1558 1558 1557 1557 1557 1557 1556 1556 1556 1555 1555 1555 1554 1554 1553 1554 1554 1553 1553 1552 1552 1551 1551 1551 1551
1541 1543 1545 1547 1548 1550 1551 1552 1553 1554 1554 1555 1556 1557 1557 1558 1558 1558 1558 1557 1557 1557 1557 1556 1556 1555 1555 1554 1554 1553 1554 1554 1553 1553 1553 1553 1553 1552 1551 1551 1550 1550 1549
1537 1540 1542 1545 1546 1548 1549 1551 1551 1552 1553 1554 1556 1556 1556 1557 1558 1558 1557 1557 1557 1556 1556 1555 1555 1554 1554 1554 1553 1553 1553 1553 1552 1552 1552 1552 1551 1551 1551 1550 1549 1548 1548
1533 1537 1539 1542 1544 1546 1547 1549 1550 1551 1552 1553 1555 1556 1556 1557 1557 1557 1557 1556 1556 1556 1555 1554 1554 1553 1554 1553 1553 1552 1552 1551 1551 1551 1550 1551 1550 1550 1550 1550 1549 1548 1547
1529 1533 1536 1539 1541 1543 1545 1547 1548 1549 1551 1552 1553 1554 1555 1556 1556 1556 1556 1555 1555 1554 1554 1554 1553 1552 1552 1552 1551 1551 1550 1550 1550 1550 1549 1549 1548 1548 1548 1548 1548 1547 1546
1526 1530 1533 1536 1539 1541 1543 1545 1546 1547 1549 1550 1551 1552 1553 1554 1555 1555 1555 1555 1555 1554 1553 1553 1552 1552 1552 1551 1550 1550 1549 1548 1548 1548 1547 1547 1547 1547 1546 1546 1545 1545 1544
1522 1526 1530 1533 1535 1538 1540 1542 1543 1545 1547 1548 1549 1550 1551 1552 1552 1553 1554 1554 1554 1554 1552 1552 1551 1551 1550 1550 1549 1548 1548 1547 1546 1546 1546 1545 1545 1545 1544 1544 1543 1543 1543
1518 1522 1526 1529 1532 1535 1537 1539 1541 1543 1544 1546 1547 1548 1549 1551 1552 1551 1552 1552 1553 1552 1551 1551 1550 1550 1549 1549 1548 1548 1547 1546 1545 1544 1543 1543 1543 1543 1543 1542 1542 1541 1541
1515 1519 1523 1526 1529 1532 1534 1537 1538 1540 1542 1543 1545 1546 1547 1548 1549 1550 1550 1551 1550 1551 1550 1550 1549 1549 1548 1548 1547 1546 1545 1544 1544 1543 1542 1542 1541 1541 1541 1541 1540 1541 1539
1512 1516 1520 1523 1526 1529 1532 1534 1536 1538 1539 1541 1543 1544 1545 1546 1547 1548 1548 1548 1549 1549 1549 1548 1548 1548 1547 1546 1546 1546 1544 1543 1542 1541 1540 1539 1539 1539 1539 1539 1538 1538 1538
1509 1513 1517 1520 1524 1527 1529 1531 1534 1535 1537 1539 1540 1542 1543 1544 1545 1545 1546 1547 1547 1547 1547 1547 1547 1546 1546 1545 1544 1544 1543 1542 1541 1540 1539 1538 1537 1537 1537 1537 1536 1536 1536
1508 1511 1514 1518 1521 1524 1526 1528 1531 1533 1534 1536 1537 1539 1540 1541 1543 1543 1544 1545 1545 1545 1545 1545 1545 1545 1545 1544 1543 1542 1542 1541 1540 1539 1538 1537 1537 1535 1535 1535 1535 1535 1534
1507 1509 1512 1515 1518 1521 1523 1526 1528 1530 1532 1533 1535 1536 1537 1539 1540 1541 1542 1543 1543 1544 1544 1544 1544 1543 1543 1542 1542 1541 1540 1539 1539 1538 1537 1536 1535 1534 1534 1533 1533 1533 1533
1506 1508 1510 1513 1515 1518 1520 1523 1525 1528 1529 1531 1532 1534 1535 1536 1537 1539 1540 1540 1541 1542 1542 1542 1542 1542 1541 1541 1540 1539 1539 1538 1537 1536 1535 1535 1534 1533 1533 1532 1532 1532 1531
1504 1506 1508 1510 1512 1515 1517 1520 1522 1524 1526 1528 1529 1531 1532 1534 1535 1536 1537 1538 1539 1539 1539 1540 1540 1539 1539 1539 1538 1538 1537 1536 1536 1535 1534 1533 1532 1531 1531 1531 1531 1530 1530
1502 1504 1506 1508 1510 1511 1514 1517 1519 1521 1523 1525 1527 1528 1530 1531 1532 1533 1534 1535 1536 1536 1537 1537 1537 1537 1537 1536 1536 1535 1535 1534 1534 1533 1532 1531 1531 1530 1530 1529 1529 1528 1529
1500 1501 1503 1505 1506 1508 1511 1513 1516 1518 1520 1522 1524 1525 1526 1528 1529 1530 1531 1532 1532 1533 1533 1533 1534 1534 1533 1533 1533 1533 1532 1532 1531 1531 1530 1531 1530 1529 1528 1527 1527 1526 1526
1497 1498 1500 1502 1504 1506 1508 1510 1513 1515 1517 1518 1520 1522 1523 1525 1526 1527 1527 1528 1528 1529 1529 1530 1530 1530 1530 1530 1530 1529 1529 1529 1528 1528 1528 1527 1527 1527 1526 1526 1525 1525 1524
1494 1495 1497 1499 1500 1503 1505 1507 1509 1512 1513 1515 1517 1518 1520 1521 1522 1523 1524 1524 1524 1525 1525 1526 1526 1525 1526 1526 1526 1526 1526 1525 1525 1524 1524 1524 1524 1524 1523 1523 1523 1522 1522
1492 1493 1495 1497 1498 1500 1502 1504 1506 1508 1510 1512 1514 1515 1516 1518 1518 1519 1520 1520 1520 1521 1521 1522 1522 1522 1522 1522 1522 1522 1523 1522 1522 1521 1520 1520 1520 1520 1520 1520 1520 1520 1519
1490 1491 1492 1494 1495 1497 1499 1501 1503 1505 1507 1509 1510 1512 1513 1514 1515 1515 1515 1516 1516 1517 1517 1517 1518 1518 1518 1517 1518 1518 1519 1519 1518 1519 1518 1517 1516 1516 1516 1516 1517 1516 1516
1488 1489 1490 1491 1493 1495 1497 1498 1500 1502 1503 1505 1506 1507 1509 1510 1511 1511 1511 1512 1512 1513 1513 1513 1513 1514 1513 1513 1513 1513 1514 1514 1514 1514 1515 1514 1513 1513 1513 1513 1513 1513 1513
1486 1487 1489 1490 1491 1492 1494 1496 1497 1499 1500 1501 1502 1503 1505 1505 1506 1507 1507 1508 1508 1509 1509 1509 1509 1509 1509 1509 1509 1509 1509 1509 1510 1510 1510 1509 1509 1509 1509 1508 1509 1509 1509
1485 1486 1487 1488 1489 1490 1492 1493 1494 1495 1496 1497 1498 1499 1500 1501 1502 1503 1503 1504 1504 1505 1505 1505 1505 1505 1505 1505 1504 1504 1504 1504 1504 1505 1505 1505 1505 1505 1505 1505 1505 1505 1505
1483 1484 1485 1485 1486 1487 1489 1490 1491 1492 1493 1494 1494 1495 1496 1497 1497 1498 1498 1499 1499 1500 1500 1500 1501 1500 1500 1500 1499 1499 1499 1500 1500 1500 1500 1501 1501 1501 1501 1501 1501 1500 1500
1480 1481 1482 1483 1484 1485 1486 1487 1488 1489 1489 1490 1490 1491 1492 1493 1494 1494 1494 1493 1494 1493 1494 1494 1495 1494 1494 1494 1494 1494 1494 1494 1494 1495 1496 1496 1496 1496 1496 1497 1496 1495 1495